Location: Caltech
(34.1382°N, 118.1253°W)
Time: 19:09:14
(UTC-07:00)

Aureole 2 Rocket - Visible Passes

Search period start: 28 May 2017 00:00
Search period end: 07 June 2017 00:00
Orbit: 328 x 571 km, 73.9° (Epoch: 27 May)

Date Brightness Start Highest point End Pass type
(mag) Time Alt. Az. Time Alt. Az. Time Alt. Az.
28 May 5.9 01:27:41 10° NE 01:28:13 10° ENE 01:28:13 10° ENE visible
28 May 4.5 02:59:57 10° NNW 03:01:49 25° NW 03:01:49 25° NW visible
29 May 4.7 02:23:49 10° NNW 02:25:49 28° N 02:25:49 28° N visible
30 May 5.1 01:47:57 10° N 01:49:52 23° NNE 01:49:52 23° NNE visible
31 May 5.6 01:12:29 10° NNE 01:13:57 16° NE 01:13:57 16° NE visible
31 May 5.5 02:47:15 10° NW 02:47:34 12° NW 02:47:34 12° NW visible
01 Jun 5.3 02:10:41 10° NNW 02:11:41 17° NNW 02:11:41 17° NNW visible
02 Jun 5.3 01:34:27 10° NNW 01:35:50 20° N 01:35:50 20° N visible
03 Jun 5.4 00:58:30 10° N 01:00:00 20° NNE 01:00:00 20° NNE visible
04 Jun 5.6 00:22:55 10° NNE 00:24:10 15° NNE 00:24:10 15° NNE visible
04 Jun 5.8 01:57:43 10° NW 01:57:47 10° NW 01:57:47 10° NW visible
05 Jun 5.5 01:21:04 10° NNW 01:21:58 16° NNW 01:21:58 16° NNW visible
06 Jun 5.3 00:44:44 10° NNW 00:46:11 21° N 00:46:11 21° N visible
